Flag for Switzerland Weather past 2 weeks in Aarau, Aargau, Switzerland

Now
63 °F

Mild.


Feels Like: 63 °F
Forecast: 58 / 76 °F
Wind: 1 mph from Southwest

Location: Wynau

Current Time: Jul 31, 2014 at 1:37:51 AM

Latest Report: Jul 31, 2014 at 1:00 AM


Visibility: N/A

Pressure: 29.99 "Hg

Humidity: 98%

Dew point: 62 °F

Location of AarauLocation

Historic Weather in Aarau — Graph

°F

Aarau temperature yesterday

Maximum temperature yesterday: 66 °F (at 6:00 PM)
Minimum temperature yesterday: 60 °F (at 7:00 AM)
Average temperature yesterday: 62 °F

Past Weeks' High & Low Weather Summary

 TemperatureHumidityPressure
High88 °F (Jul 18, 5:00 PM)100% (Jul 23, 1:00 AM)30.22 "Hg (Jul 23, 1:00 AM)
Low53 °F (Jul 16, 6:00 AM)27% (Jul 18, 7:00 PM)29.78 "Hg (Jul 28, 3:00 PM)
Average66 °F83%29.96 "Hg
* Reported Midnight between Jul 15 and Jul 16 — Midnight between Jul 30 and Jul 31, Aarau, Weather by CustomWeather, © 2014

Note: Actual official high and low records may vary slightly from our data, if they occured in-between our weather recording intervals... More about our weather records

Advertising

Aarau weather history for previous 24 hours

 ConditionsComfort  
Time TempWeatherWind HumidityBarometerVisibility
12:00 AM
Jul 31
64 °FMild.2 mph99%29.98 "HgN/A
11:00 PM
Jul 30
64 °FMild.1 mph98%29.97 "HgN/A
10:00 PM64 °FMild.2 mph99%29.96 "HgN/A
9:00 PM64 °FMild.2 mph98%29.94 "HgN/A
8:00 PM64 °FMild.2 mph98%29.93 "HgN/A
7:00 PM64 °FMild.5 mph98%29.91 "HgN/A
6:00 PM66 °FMild.6 mph93%29.90 "HgN/A
5:00 PM64 °FMild.2 mph97%29.90 "HgN/A
4:00 PM66 °FMild.6 mph86%29.89 "HgN/A
3:00 PM65 °FMild.7 mph83%29.89 "HgN/A
2:00 PM64 °FMild.7 mph84%29.89 "HgN/A
1:00 PM64 °FMild.9 mph86%29.88 "HgN/A
12:00 PM62 °FCool.5 mph91%29.88 "HgN/A
11:00 AM61 °FCool.5 mph94%29.87 "HgN/A
10:00 AM60 °FCool.3 mph96%29.87 "HgN/A
9:00 AM60 °FCool.3 mph96%29.86 "HgN/A
8:00 AM60 °FCool.2 mph97%29.85 "HgN/A
7:00 AM60 °FCool.3 mph98%29.84 "HgN/A
6:00 AM60 °FCool.2 mph94%29.84 "HgN/A
5:00 AM60 °FCool.3 mph93%29.83 "HgN/A
4:00 AM60 °FCool.3 mph93%29.83 "HgN/A
3:00 AM60 °FCool.3 mph94%29.85 "HgN/A
2:00 AM60 °FCool.3 mph94%29.85 "HgN/A
1:00 AM61 °FCool.3 mph92%29.85 "HgN/A
Weather by CustomWeather, © 2014

See weather overviewHow to use our weather pages